Погода в Большегривском

Россия / Омская область     53°54′55″N   74°54′37″E
темп.,
°C
ветер,
м/с
пор.,
м/с
влажн.,
%
обл.,
%
осадки,
мм/ч
давл.,
гПа
погр.,
м
10 мая, пн
пн1000:00+12всв101743100 0.0 1016681
03:00+11в91643100 0.0 1016738
06:00+9всв91546100 0.0 1018741
09:00+11всв101342100 0.0 1019847
12:00+14в91132100 0.0 10191490
15:00+17всв91131100 0.0 10181816
18:00+16всв9103356 0.0 10191853
21:00+13св713425 0.0 1021476
11 мая, вт
вт1100:00+10ссв4115351 0.0 1021235
03:00+8ссв410590 0.0 1022193
06:00+7ссв49640 0.0 1023201
09:00+13ссв57454 0.0 1023921
12:00+15ссв673743 0.0 10232195
15:00+17ссв673015 0.0 10222533
18:00+17ссв672929 0.0 10232499
21:00+13с35412 0.0 102478
12 мая, ср
ср1200:00+11с34480 0.0 102553
03:00+10с33530 0.0 102523
06:00+9ссз346092 0.0 102569
09:00+14ссз354062 0.0 1025455
12:00+19сз352928 0.0 10241334
15:00+22ссз4626100 0.0 10222402
18:00+22сз5727100 0.0 10202680
21:00+15ссз6877100 0.9 1021398
13 мая, чт
чт1300:00+15сз4867100 1.8 1020469
03:00+12ссз41080100 0.1 1020348
06:00+10ссз5972100 0.1 1021369
09:00+13с710485 0.0 10221260
12:00+16с79355 0.0 10211951
15:00+18с78285 0.0 10212231
18:00+18с67255 0.0 10212203
21:00+14ссз34385 0.0 102247
14 мая, пт
пт1400:00+13зсз2239100 0.0 102116
03:00+14з4949100 0.0 1020256
06:00+13зсз4980100 0.0 1021410
09:00+15с786537 0.0 1022967
12:00+17с674133 0.0 10241345
15:00+20с563055 0.0 10241716
18:00+20ссз562611 0.0 10241790
21:00+16сз33395 0.0 102521